Wind_Speed
37 37 35 33 33 32 31 30 30 29 28 28 27 26 26 26 25 25 25 25 25 24 24 24 25 25 25 26 26 27 27 27 28 28 28 29 29 29 30 30 31 31 31 32
38 36 34 34 33 33 32 31 30 30 29 29 28 27 27 27 26 26 26 26 25 25 25 25 25 26 26 27 27 27 27 28 29 29 29 30 30 30 31 31 32 32 32 33
38 35 35 34 33 33 32 31 30 30 30 30 29 27 27 27 26 26 26 26 26 25 25 25 26 26 27 27 27 27 27 28 29 29 30 30 30 31 32 32 33 33 33 34
39 36 36 34 33 32 32 31 30 30 30 29 29 28 26 25 25 25 25 26 25 25 25 25 25 26 26 27 27 27 27 28 29 30 30 30 31 31 32 33 34 34 34 35
39 37 37 35 33 32 31 30 30 30 30 30 29 30 25 24 24 24 24 25 25 25 25 25 25 25 26 27 27 27 28 28 29 30 30 31 32 32 33 34 34 35 36 36
39 38 37 35 33 32 31 31 31 31 31 30 29 30 27 25 24 24 24 24 25 25 25 25 25 25 26 27 27 28 28 29 30 31 31 32 33 33 34 34 35 36 37 38
40 39 37 35 34 33 32 32 32 33 32 31 30 30 28 26 25 25 24 24 25 25 25 25 26 26 27 28 28 29 29 30 31 31 32 33 34 34 35 36 36 37 38 39
39 38 36 35 34 33 34 34 33 34 33 32 31 30 28 27 27 26 25 25 25 25 26 26 26 27 28 28 29 30 30 31 32 32 33 34 34 35 36 37 37 38 39 39
39 37 35 34 34 35 35 35 33 34 34 33 32 30 28 27 27 27 26 26 26 26 26 26 27 27 28 29 30 31 31 32 33 34 34 35 36 36 37 38 38 39 39 40
40 40 38 36 35 36 35 34 34 34 35 34 33 30 28 27 27 27 26 26 26 26 26 27 28 28 29 30 31 31 32 33 34 34 35 36 36 37 38 38 38 39 40 41
40 39 38 37 36 35 35 35 34 35 35 35 34 30 27 27 27 27 26 26 26 26 26 27 28 29 30 30 31 32 33 33 34 35 35 36 37 37 38 38 39 40 41 42
39 39 39 37 36 36 36 35 35 36 35 35 35 30 27 28 28 28 28 27 26 27 27 28 29 30 30 31 32 32 33 34 34 35 36 36 37 38 38 39 40 41 42 43
39 40 40 39 38 36 36 35 35 35 36 35 34 29 28 28 29 29 28 27 27 28 28 29 30 31 31 32 32 33 34 34 35 35 35 36 37 38 39 40 41 42 43 44
38 39 39 37 35 35 35 35 36 36 35 34 31 28 27 28 30 29 28 28 28 29 29 30 31 31 32 32 33 34 34 34 35 36 36 37 38 39 40 41 41 42 43 44
40 39 37 36 35 34 34 34 35 35 33 32 29 28 26 29 30 30 30 29 30 30 30 31 32 32 33 33 34 34 35 35 36 37 37 37 38 39 40 41 42 42 44 45
40 40 38 38 37 36 36 34 33 33 32 31 30 27 26 30 31 31 31 31 31 31 32 32 32 33 34 34 35 35 36 37 37 37 37 38 39 39 40 41 43 44 45 46
40 38 39 38 37 39 39 34 33 33 31 32 31 26 28 30 30 31 31 32 32 32 32 32 33 34 35 35 36 36 37 37 37 37 38 39 40 40 41 42 43 45 46 47
41 40 39 38 38 41 35 33 33 33 32 31 30 28 29 30 30 31 31 32 32 32 32 33 33 34 35 35 36 36 37 37 38 38 39 40 41 42 42 43 44 46 47 49
42 42 42 41 39 39 36 33 31 32 31 29 30 30 30 30 31 31 31 32 32 33 33 33 34 34 35 35 36 37 37 38 39 40 40 41 42 43 44 45 46 47 48 50
44 43 43 42 41 39 34 32 32 33 31 28 31 31 30 31 31 29 31 32 33 34 34 34 35 35 35 36 36 37 38 38 39 40 41 42 43 44 45 46 47 49 50 51
44 43 43 42 41 39 34 33 33 33 29 29 31 31 31 31 30 30 31 32 33 34 34 35 36 36 36 37 37 38 38 39 40 41 42 43 44 45 46 47 48 49 51 52
43 44 43 41 42 36 32 34 33 31 31 30 30 31 31 32 31 31 32 33 34 35 36 36 36 37 37 38 38 39 40 41 42 42 43 44 45 46 47 48 49 51 52 54
44 44 42 41 39 36 36 34 33 33 32 31 31 31 32 32 32 32 33 34 35 36 36 36 37 37 38 39 40 41 42 42 43 44 45 45 46 47 48 50 51 52 54 55
44 42 43 42 39 37 36 35 34 34 33 33 33 33 33 33 33 33 34 34 35 36 36 37 37 38 40 41 41 42 43 44 44 45 46 46 47 49 50 52 53 54 56 56
42 42 42 42 40 38 37 36 35 35 34 34 35 34 34 34 34 35 35 36 36 37 37 38 39 40 41 42 43 44 44 45 46 47 48 48 49 50 52 53 54 56 57 57
42 41 41 40 39 40 38 36 36 36 35 36 36 35 35 35 35 36 37 37 37 38 39 40 40 41 42 43 44 45 46 47 47 48 49 50 51 52 53 54 55 57 58 58
Wind_Direction
235 237 238 240 243 246 248 250 252 255 257 259 260 262 266 269 271 273 275 277 279 280 280 281 282 283 285 287 288 289 289 289 289 289 290 290 290 290 290 290 291 292 292 292
234 236 238 240 242 244 247 249 252 256 259 260 260 261 264 268 271 274 276 277 279 280 280 280 281 283 285 286 288 288 288 288 288 288 288 289 290 290 289 290 290 291 291 291
234 235 237 240 242 245 247 249 253 256 259 261 261 261 265 268 271 273 275 277 278 278 278 280 281 282 284 286 287 288 288 287 287 288 289 289 290 290 289 289 290 291 291 291
232 232 236 239 241 244 246 249 252 256 258 260 263 263 263 268 270 273 275 277 278 279 280 280 281 282 284 286 287 288 288 287 287 288 289 289 289 289 289 289 290 290 291 291
232 233 235 237 240 243 246 248 252 255 258 260 263 265 261 266 269 272 275 277 279 280 281 282 282 283 285 287 288 288 288 288 288 288 288 289 289 289 289 289 289 289 289 290
231 231 234 236 238 242 244 248 252 255 258 260 261 266 265 267 270 272 274 276 278 281 282 282 283 285 286 286 287 288 288 289 289 289 289 288 289 289 289 289 289 289 289 289
231 232 233 235 237 240 243 247 251 254 257 261 263 266 269 271 271 272 275 277 279 280 281 283 284 285 286 286 287 288 289 289 289 289 289 289 289 288 289 288 289 289 289 289
232 232 233 235 239 241 243 247 251 256 260 263 265 267 270 271 272 274 276 278 280 281 281 283 284 285 286 287 288 289 289 289 289 289 289 289 288 288 288 288 288 289 289 288
234 234 234 236 238 242 244 247 252 256 260 263 264 266 268 271 273 276 277 278 280 281 282 283 285 286 288 289 289 290 290 290 290 290 290 289 288 288 288 288 288 289 289 288
234 235 234 235 238 241 245 248 251 255 260 263 264 266 269 271 274 276 277 278 280 282 283 284 286 288 289 290 290 291 292 291 291 291 291 290 289 289 289 288 289 289 289 289
233 235 234 235 237 241 243 245 249 254 258 262 265 267 270 272 274 276 277 278 280 281 282 284 286 288 289 290 291 292 292 292 292 291 291 291 290 289 289 289 289 290 289 289
233 235 235 236 237 240 243 246 249 253 258 262 265 268 270 272 273 275 277 279 280 282 283 285 286 288 290 291 291 292 292 292 292 292 292 291 291 290 290 290 290 290 291 291
230 233 235 235 237 240 244 247 250 253 256 259 263 267 269 271 272 274 277 279 281 283 284 285 287 289 291 291 292 292 293 293 293 293 292 292 291 291 291 291 291 291 292 292
230 233 236 238 241 243 245 246 249 251 254 259 263 266 267 269 271 274 277 280 282 284 285 286 288 290 291 292 293 293 293 293 293 293 293 292 292 292 292 292 292 292 292 293
229 231 233 235 239 241 243 245 248 251 256 260 263 264 265 265 269 273 276 279 281 283 285 286 289 291 292 292 293 294 294 294 294 294 294 294 293 293 293 293 293 293 293 294
229 232 234 237 240 243 243 243 246 251 254 258 261 263 264 266 269 272 275 278 280 282 284 287 290 291 291 292 293 294 294 295 295 294 294 295 295 295 295 295 295 295 295 295
232 234 236 239 242 244 244 245 248 251 254 257 260 263 264 267 270 273 275 278 281 283 285 287 289 290 291 292 294 295 295 295 295 296 295 296 296 296 296 296 296 296 296 296
231 234 236 239 240 243 247 247 249 252 253 256 259 261 265 268 270 272 275 277 280 282 285 287 289 291 292 293 294 295 296 296 296 296 296 296 297 297 298 298 297 297 297 297
232 235 237 239 242 245 246 247 250 252 252 254 258 260 264 267 269 272 275 277 280 283 286 288 290 291 292 293 294 295 296 296 296 297 297 297 298 298 298 298 298 298 298 299
234 235 237 239 243 245 247 248 250 253 253 253 257 261 265 268 271 274 275 278 280 283 285 287 289 290 291 293 294 295 295 296 297 297 297 298 298 299 299 299 299 299 299 300
235 236 239 241 245 247 247 248 249 252 255 256 259 262 265 268 273 274 276 279 282 284 286 287 288 289 290 292 294 295 296 296 297 297 297 298 298 299 299 299 300 300 300 301
236 238 241 244 245 245 246 247 248 253 255 258 260 263 266 270 273 275 278 280 282 285 286 287 287 289 290 291 293 295 297 297 297 298 298 299 299 299 300 300 301 301 302 302
236 239 242 244 246 247 247 249 249 251 255 258 261 264 267 270 273 276 278 280 282 285 286 287 288 288 290 292 293 295 296 297 298 298 299 299 300 300 301 301 302 303 303 303
237 239 242 243 244 245 246 247 250 253 256 258 261 264 267 270 273 276 278 280 282 284 286 287 288 290 291 293 294 295 296 297 298 299 299 300 300 301 302 303 303 304 304 304
238 240 242 244 243 244 244 248 252 254 256 258 261 264 267 270 274 276 278 280 282 284 285 287 288 290 292 293 294 295 296 297 298 299 299 300 300 301 302 303 304 304 304 304
237 241 243 244 243 244 245 249 252 254 257 259 261 264 267 270 274 276 278 280 283 285 286 287 288 290 292 293 294 295 296 298 299 299 299 300 301 302 303 303 304 305 305 304
Height
5801 5805 5808 5812 5815 5818 5820 5822 5823 5825 5826 5827 5828 5828 5828 5828 5829 5829 5828 5828 5828 5827 5826 5825 5824 5822 5821 5820 5819 5817 5815 5813 5811 5809 5807 5805 5803 5801 5799 5796 5794 5792 5789 5787
5793 5798 5802 5804 5807 5810 5812 5814 5817 5818 5819 5820 5821 5822 5822 5822 5822 5822 5822 5822 5821 5821 5820 5819 5817 5816 5815 5813 5812 5810 5808 5806 5805 5803 5801 5799 5797 5794 5792 5790 5787 5784 5782 5779
5786 5793 5794 5797 5800 5803 5805 5808 5810 5812 5812 5812 5814 5816 5816 5816 5816 5816 5815 5815 5815 5814 5814 5812 5811 5809 5808 5807 5805 5803 5801 5799 5797 5796 5794 5792 5789 5787 5785 5782 5780 5777 5774 5772
5777 5783 5786 5789 5793 5796 5799 5802 5803 5804 5805 5806 5807 5808 5810 5810 5810 5810 5809 5808 5808 5807 5807 5805 5804 5802 5801 5800 5798 5796 5794 5792 5790 5788 5786 5784 5782 5780 5777 5775 5772 5769 5767 5764
5771 5776 5778 5782 5787 5789 5793 5794 5795 5796 5797 5799 5799 5799 5804 5804 5804 5803 5803 5802 5801 5800 5799 5798 5797 5796 5794 5793 5791 5789 5787 5785 5783 5781 5779 5777 5775 5772 5770 5767 5764 5761 5759 5756
5763 5767 5770 5776 5780 5782 5785 5787 5787 5788 5789 5791 5793 5792 5795 5797 5797 5797 5796 5796 5794 5793 5792 5791 5790 5789 5787 5786 5784 5782 5780 5778 5776 5773 5771 5769 5767 5764 5762 5759 5756 5753 5750 5747
5754 5759 5763 5768 5771 5774 5777 5779 5780 5780 5781 5784 5786 5785 5788 5790 5790 5790 5790 5789 5787 5786 5785 5784 5783 5782 5780 5778 5777 5775 5773 5770 5768 5766 5763 5761 5758 5756 5753 5751 5748 5744 5741 5738
5746 5751 5756 5761 5764 5767 5769 5771 5773 5774 5775 5777 5777 5778 5782 5782 5782 5782 5782 5781 5780 5779 5778 5777 5776 5774 5772 5771 5769 5767 5765 5763 5760 5758 5755 5753 5750 5747 5745 5742 5738 5735 5732 5729
5739 5744 5750 5753 5756 5759 5760 5763 5766 5766 5766 5768 5769 5772 5774 5774 5774 5775 5774 5774 5773 5772 5771 5770 5768 5767 5765 5763 5761 5759 5757 5754 5752 5749 5747 5744 5741 5738 5736 5732 5729 5726 5723 5719
5730 5735 5740 5744 5747 5749 5753 5755 5756 5757 5758 5759 5761 5764 5767 5767 5767 5767 5767 5766 5765 5764 5763 5762 5761 5759 5757 5755 5753 5750 5748 5746 5743 5740 5738 5735 5732 5729 5726 5723 5720 5716 5713 5709
5721 5726 5731 5734 5738 5742 5745 5747 5748 5749 5750 5752 5753 5759 5760 5760 5759 5759 5759 5758 5757 5757 5756 5754 5753 5751 5749 5747 5744 5742 5739 5737 5734 5731 5728 5725 5722 5719 5716 5713 5710 5706 5703 5699
5712 5716 5721 5726 5731 5733 5735 5738 5740 5742 5743 5744 5745 5752 5752 5752 5751 5750 5750 5750 5749 5749 5748 5746 5744 5742 5740 5738 5736 5733 5730 5728 5725 5722 5719 5716 5713 5709 5706 5703 5700 5696 5692 5688
5703 5707 5711 5715 5721 5724 5726 5729 5732 5734 5735 5736 5737 5745 5743 5743 5742 5742 5742 5742 5741 5740 5739 5737 5736 5734 5731 5729 5727 5724 5721 5718 5715 5712 5709 5706 5703 5700 5696 5693 5689 5685 5682 5678
5694 5698 5703 5708 5712 5716 5718 5721 5723 5724 5725 5728 5731 5735 5736 5734 5733 5733 5733 5733 5732 5731 5730 5729 5727 5725 5723 5720 5718 5715 5712 5709 5706 5703 5700 5696 5693 5690 5686 5682 5679 5675 5670 5666
5684 5689 5694 5698 5702 5706 5709 5712 5714 5715 5718 5721 5724 5725 5727 5725 5725 5725 5725 5724 5724 5723 5721 5720 5718 5716 5714 5711 5708 5705 5702 5699 5696 5693 5690 5686 5683 5679 5675 5672 5668 5663 5659 5655
5675 5681 5685 5689 5693 5695 5698 5702 5705 5707 5710 5712 5714 5717 5718 5716 5716 5716 5716 5715 5715 5714 5712 5710 5709 5707 5704 5701 5699 5696 5693 5690 5686 5683 5680 5676 5672 5669 5665 5661 5657 5652 5648 5643
5667 5672 5676 5680 5683 5684 5688 5695 5697 5700 5702 5704 5705 5710 5708 5708 5707 5707 5707 5706 5706 5704 5703 5701 5699 5697 5694 5692 5689 5686 5683 5680 5676 5673 5669 5666 5662 5658 5654 5650 5645 5641 5636 5631
5658 5662 5666 5670 5673 5673 5685 5687 5689 5691 5693 5695 5697 5699 5699 5699 5698 5698 5698 5697 5696 5695 5694 5692 5690 5687 5685 5682 5679 5676 5673 5669 5666 5662 5659 5655 5651 5647 5642 5638 5633 5629 5624 5619
5648 5653 5656 5660 5662 5666 5674 5678 5680 5681 5684 5687 5687 5689 5689 5689 5688 5689 5689 5688 5687 5686 5684 5682 5680 5677 5675 5672 5669 5666 5662 5659 5655 5652 5648 5644 5639 5635 5631 5626 5621 5616 5611 5606
5639 5643 5648 5651 5653 5658 5668 5670 5670 5672 5675 5679 5678 5679 5680 5679 5680 5682 5679 5678 5677 5676 5674 5672 5670 5667 5665 5662 5659 5655 5652 5649 5645 5641 5637 5632 5628 5624 5619 5614 5609 5604 5598 5593
5629 5633 5638 5641 5644 5650 5658 5659 5660 5664 5669 5669 5668 5669 5670 5670 5671 5671 5669 5668 5667 5666 5664 5662 5660 5657 5654 5651 5648 5645 5642 5638 5634 5629 5625 5621 5616 5612 5607 5602 5597 5591 5585 5580
5620 5624 5629 5631 5635 5644 5648 5649 5652 5655 5656 5657 5658 5658 5659 5660 5660 5660 5660 5658 5657 5655 5653 5651 5649 5647 5644 5641 5638 5635 5631 5627 5622 5618 5614 5609 5604 5599 5594 5589 5584 5578 5572 5566
5610 5617 5621 5624 5630 5635 5637 5640 5642 5644 5646 5647 5648 5649 5650 5650 5650 5650 5649 5648 5647 5645 5643 5641 5638 5636 5633 5630 5627 5623 5619 5615 5611 5606 5602 5597 5592 5587 5582 5576 5571 5565 5558 5552
5601 5606 5609 5613 5620 5624 5626 5629 5631 5634 5635 5636 5638 5639 5640 5640 5640 5640 5639 5638 5636 5634 5632 5630 5627 5625 5622 5619 5615 5612 5608 5603 5599 5595 5590 5585 5580 5574 5569 5563 5557 5551 5544 5537
5592 5595 5598 5603 5609 5612 5616 5619 5622 5623 5625 5626 5628 5629 5629 5629 5629 5629 5628 5627 5625 5623 5621 5619 5616 5613 5610 5607 5603 5600 5596 5591 5587 5582 5577 5572 5567 5561 5556 5550 5543 5536 5530 5522
5583 5586 5590 5595 5600 5602 5607 5610 5611 5613 5615 5616 5617 5617 5618 5618 5618 5617 5616 5615 5614 5612 5610 5607 5605 5602 5599 5595 5591 5587 5583 5579 5574 5570 5565 5559 5554 5548 5542 5536 5530 5522 5515 5507